{"data":{"norad_id":42826,"epoch":"2026-05-25T00:10:29.049888Z","epoch_age_seconds":84636,"freshness":"FRESH","line1":"1 42826U 17042B   26145.00728067  .00006186  00000+0  34646-3 0  9990","line2":"2 42826  97.4433 313.2489 0007876 153.9373 206.2257 15.13746625483721","mean_motion":15.13746625,"eccentricity":0.0007876,"inclination_deg":97.4433,"raan_deg":313.2489,"arg_perigee_deg":153.9373,"mean_anomaly_deg":206.2257,"bstar":0.00034646,"rev_number":48372,"period_min":95.128205488154,"perigee_km":519.34958217427,"apogee_km":530.22306699516,"semimajor_km":6902.9233245847,"source":"CELESTRAK","updated_at":"2026-05-25T13:37:55.696305Z"}}